Lid_Strength_Index
7 7 7 7 7 7 5 4 7 2 3 8 7 8 9 10 8 7 7 7 8 8 9 10 9 10 9 7 7 9 7 9 10 9 8 7 7 7 7 10 10 9 9 9
7 7 7 7 8 7 5 6 5 1 3 9 8 7 8 8 8 8 8 8 7 7 8 10 9 9 7 8 8 8 7 9 11 10 9 8 9 8 7 7 7 9 10 9
5 5 6 6 6 6 4 4 6 4 3 4 7 7 8 8 7 7 6 7 7 8 8 8 9 9 8 8 8 5 6 9 10 11 9 8 9 8 8 8 9 9 9 8
4 4 4 5 5 5 4 3 5 5 7 6 6 6 7 8 8 6 6 7 7 8 9 8 9 8 8 8 6 7 7 10 9 8 8 8 8 8 8 8 8 9 8 7
3 3 4 5 5 6 3 5 5 4 6 6 7 7 7 8 7 6 7 7 7 7 8 8 8 8 8 8 6 7 7 9 8 9 8 8 9 8 8 8 8 7 7 7
3 3 3 3 5 5 3 1 2 4 7 6 7 7 7 7 6 6 5 6 7 7 7 6 6 6 6 7 7 7 7 8 9 11 8 8 11 9 8 8 7 7 8 6
2 2 2 2 4 4 3 1 3 6 8 6 7 6 6 7 6 7 6 5 7 5 3 4 4 5 5 6 7 6 7 7 7 10 8 13 8 6 6 7 6 5 6 6
2 2 1 2 3 4 3 2 3 5 8 6 6 7 7 6 6 7 6 5 4 3 4 8 9 9 8 7 6 6 6 7 9 10 10 9 8 7 7 8 7 5 6 6
1 1 1 1 2 3 3 2 1 3 7 7 5 6 6 8 8 7 6 3 2 3 6 9 12 14 11 11 8 6 6 6 8 9 11 13 8 5 4 4 9 6 6 6
1 1 0 0 1 3 3 3 3 4 7 5 4 7 7 5 7 8 7 6 6 4 8 11 12 12 8 13 12 9 9 9 10 10 11 8 6 5 5 11 8 5 5 5
1 1 1 1 1 2 4 4 2 3 6 4 3 3 5 5 6 10 6 7 6 7 10 10 10 10 9 10 9 10 10 11 11 10 11 12 5 6 8 6 5 4 4 4
1 0 1 1 1 1 2 5 2 1 6 5 2 1 1 2 3 5 5 6 7 7 8 8 8 11 8 9 13 6 10 8 10 8 9 6 4 5 5 5 5 4 4 4
1 1 1 1 1 1 2 3 2 3 5 5 5 5 2 -0 1 0 7 6 5 6 4 7 9 10 8 11 9 8 8 5 8 7 6 6 5 4 4 4 4 4 3 4
2 2 2 1 1 2 2 4 2 4 5 9 7 2 3 1 1 1 1 3 3 3 5 8 9 11 6 9 8 9 7 6 7 7 6 5 5 4 4 4 4 4 3 4
2 2 2 1 1 2 2 3 3 2 6 9 8 5 3 2 1 2 2 2 4 5 8 9 10 8 7 7 7 8 6 7 8 8 5 6 5 4 3 4 4 4 5 5
2 2 2 2 2 2 3 6 3 2 4 8 10 5 4 3 2 2 3 3 4 5 7 8 7 5 8 11 10 6 5 4 4 5 3 4 3 3 3 4 4 4 4 4
3 2 2 2 2 0 4 5 4 3 3 8 9 8 4 3 3 3 4 3 4 5 7 8 7 7 7 8 11 6 5 4 4 3 3 5 4 4 3 3 3 3 3 3
3 2 2 2 2 2 2 1 3 2 5 6 10 9 6 3 6 7 3 6 5 5 7 6 8 7 7 10 6 5 4 4 4 4 3 3 3 3 4 3 3 4 4 3
2 2 2 -0 1 3 2 1 2 1 4 8 8 10 12 4 6 6 6 6 10 6 9 8 8 9 12 8 6 5 5 5 5 4 3 3 4 4 4 3 3 4 3 3
2 0 2 4 2 0 1 3 5 5 5 6 9 6 10 7 7 8 8 7 10 12 9 7 10 10 6 5 4 4 4 4 4 5 6 5 5 4 4 3 3 3 3 3
-0 2 4 1 1 2 4 7 8 7 9 7 7 7 9 5 9 9 7 10 9 13 11 11 12 11 7 5 5 4 4 3 3 4 4 3 4 4 4 3 3 3 3 3
2 2 2 2 4 5 8 8 7 9 10 7 8 7 7 6 5 9 8 11 10 14 8 11 13 9 6 5 5 4 3 3 3 3 4 3 3 3 3 3 3 2 2 2
1 3 5 5 5 11 10 12 9 9 6 5 6 8 7 6 6 8 9 12 13 8 12 13 11 8 6 5 4 4 3 3 3 3 3 3 2 2 2 3 2 2 2 2
5 7 12 7 9 8 7 8 8 5 5 5 6 7 8 7 9 8 12 10 9 13 15 14 9 7 6 5 4 4 4 3 3 3 3 3 3 3 2 2 2 2 2 2
6 6 11 7 5 5 4 4 5 4 4 5 6 7 7 8 9 8 9 11 13 13 14 10 7 6 5 5 4 4 4 3 3 3 3 3 3 3 3 2 1 1 2 2
5 5 6 4 5 5 5 5 5 3 4 4 5 8 9 10 9 11 12 12 14 12 9 7 6 5 5 4 3 3 3 3 3 3 3 3 3 3 2 2 2 2 2 2
6 5 3 4 4 5 5 4 4 3 5 7 6 10 11 7 10 11 10 12 10 7 6 6 5 5 4 4 3 3 3 3 3 3 2 2 2 2 2 3 2 1 1 1